Historical Weather Data

Kanab, UT VWS

Date ET
(Inches)
Rain
(Inches)
Temp °F
Humidity
Avg
Wind MPH
Avg
Solar Wm2
Avg
High Ave Low
04/01/2019 12:00 am 0.147 0.00 62.0 47.9 33.0 38 3.0 285
04/02/2019 12:00 am 0.150 0.02 61.0 49.8 37.0 36 4.1 254
04/03/2019 12:00 am 0.143 0.02 61.0 50.5 41.0 55 4.2 283
04/04/2019 12:00 am 0.128 0.00 65.0 51.7 40.0 48 2.8 216
04/05/2019 12:00 am 0.116 0.00 65.0 51.4 41.0 47 2.9 187
04/06/2019 12:00 am 0.153 0.00 62.0 52.3 44.0 54 3.1 289
04/07/2019 12:00 am 0.169 0.00 72.0 55.3 36.0 44 2.2 309
04/08/2019 12:00 am 0.189 0.00 78.0 60.2 43.0 35 2.9 303
04/09/2019 12:00 am 0.264 0.00 74.0 60.1 48.0 29 10.1 311
04/10/2019 12:00 am 0.158 0.00 53.0 45.1 38.0 40 8.6 296
04/11/2019 12:00 am 0.132 0.00 54.0 43.4 32.0 48 3.1 274
04/12/2019 12:00 am 0.127 0.00 52.0 43.7 35.0 57 2.8 291
04/13/2019 12:00 am 0.156 0.00 63.0 47.4 32.0 44 3.2 324
04/14/2019 12:00 am 0.205 0.00 69.0 53.2 34.0 34 5.3 327
04/15/2019 12:00 am 0.219 0.00 71.0 56.9 42.0 31 6.0 321
04/16/2019 12:00 am 0.073 0.27 52.0 48.1 44.0 57 4.2 88
04/17/2019 12:00 am 0.183 0.01 66.0 51.6 38.0 51 4.5 331
04/18/2019 12:00 am 0.179 0.00 76.0 58.4 39.0 39 2.5 333
04/19/2019 12:00 am 0.201 0.00 79.0 63.6 47.0 30 2.8 331
04/20/2019 12:00 am 0.213 0.00 76.0 61.7 47.0 26 3.5 328
04/21/2019 12:00 am 0.197 0.00 68.0 58.2 47.0 42 4.3 323
04/22/2019 12:00 am 0.182 0.00 67.0 54.9 42.0 48 3.2 325
04/23/2019 12:00 am 0.194 0.00 70.0 59.3 45.0 46 4.0 336
04/24/2019 12:00 am 0.203 0.00 78.0 63.3 45.0 40 2.5 338
04/25/2019 12:00 am 0.203 0.00 77.0 63.1 49.0 39 2.5 333
04/26/2019 12:00 am 0.231 0.00 82.0 65.8 47.0 34 3.6 336
04/27/2019 12:00 am 0.232 0.00 80.0 66.4 50.0 28 3.3 344
04/28/2019 12:00 am 0.211 0.00 79.0 66.0 49.0 28 4.3 267
04/29/2019 12:00 am 0.092 0.63 63.0 55.5 46.0 52 2.7 127
04/30/2019 12:00 am 0.140 0.03 61.0 51.9 42.5 62 5.2 220